Showing default

OPS 9314 (IDSCS 4), 2218

Orbit data source: Space-Track

OPS 9314 (IDSCS 4), 2218 is a payload satellite owned by USAF SSD (US) in GEO that was launched on Thu, 16 Jun 1966 UTC via a TITAN IIIC launch vehicle from the Air Force Eastern Test Range (AFETR). Payload-class satellites include a variety of spacecraft equipped with specific instruments for various scientific and technological missions. These include communications satellites like Starlink; space stations such as the ISS; scientific satellites like the Hubble; Earth observation satellites from companies like Planet Labs, Umbra, and HawkEye 360; GPS; miniature CubeSats for education and research; and military/defense satellites.

Loading next visibility...
Identifier
2218, 1966-053E
Orbit
GEO
Country
Flag of USUS
Related business
Manufacturer
Philco-Ford WDL
Mission
Non-operational spacecraft
Bus & Motor
IDCSP, Unknown motor
Mass
45 kg wet, 45 kg dry
Launch date (UTC)
1966-06-16 (60 years ago)
Launch vehicle
TITAN IIIC
Launch site
Air Force Eastern Test Range (AFETR)
Object type
Payload
Rocket body
Debris
Shape & HBR
Unknown
Radar Cross Section
Medium (>0.1 m² and <1 m²)

Expand to show TLE details & history
Last TLE update: 3 days ago

TLE from 3 days ago
0 OPS 9314 (IDSCS 4)
1  2218U 66053E   26032.22790074 -.00000094  00000-0  00000+0 0  9990
2  2218   8.3117  46.0532 0045197 197.9544 173.0858  1.07584362233949
Epoch: 2026-02-01T05:28Z
TLE epoch observation values (Epoch: 2026-02-01T05:28:10.623Z)
Latitude
1.58657°
Longitude
-156.41828°
Altitude
34,032.735 km
Speed
3.134 km/s
True Right ascension
03h 48m 15s
True Declination
1° 35' 06"
Sunlit
Object was in daylight at epoch
Visualization orbit readout
Latitude
Unknown
Longitude
Unknown
Altitude
Unknown
Speed
Unknown
Apparent Right ascension
Unknown
Apparent Declination
Unknown
Sunlit
N/A
Visualization observer readout
Local Sidereal Time
13:30:41
Azimuth
Unknown
Elevation
Unknown
Doppler factor
Unknown
Orbital elements
Apogee altitude
34,036.553 km
Perigee altitude
33,672.872 km
Semi-major axis
40,232.849 km
Eccentricity
0.00452
Inclination
8.3117°
RAAN
46.0532°
Arg. of periapsis
197.9544°
True anomaly
173.1478°
Mean anomaly
173.0858°
Eccentric anomaly
173.11684°
Mean motion
0.26895 °/min
Orbital period
1,338.54 mins
BSTAR
0
Loading maneuver chart data...
Computing Atmospheric mass density...
Loading historical data...
Loading historical data...
Loading historical data...
Loading historical data...
Loading historical data...
Loading historical data...
Loading historical data...

Documentation

Showing up to 5 results
|